Total_Precipitation_Accumulation
0.42 0.71 0.98 0.88 0.91 0.96 0.80 0.78 0.85 0.84 0.72 0.79 0.89 0.89 0.97 0.95 0.91 0.76 0.64 0.55 0.49 0.47 0.49 0.44 0.39 0.38 0.38 0.36 0.36 0.42 0.60 0.77 0.92 1.02 1.16 1.41 1.57 1.67 1.66 1.67 1.72 1.63 1.44 1.53
0.59 0.68 0.56 0.57 0.64 0.72 0.72 0.75 0.80 0.75 0.62 0.68 0.77 0.83 0.88 0.83 0.77 0.62 0.55 0.49 0.42 0.40 0.41 0.40 0.33 0.31 0.29 0.26 0.29 0.36 0.51 0.75 0.98 1.19 1.36 1.55 1.87 2.04 2.04 2.11 2.03 1.97 1.86 1.88
0.54 0.50 0.41 0.48 0.56 0.64 0.65 0.65 0.68 0.67 0.69 0.69 0.72 0.86 0.91 0.88 0.74 0.57 0.47 0.41 0.36 0.31 0.34 0.36 0.32 0.27 0.22 0.21 0.23 0.29 0.42 0.65 0.94 1.24 1.49 1.69 1.93 2.19 2.28 2.18 2.14 2.16 2.23 2.27
0.46 0.41 0.39 0.44 0.48 0.56 0.74 0.47 0.46 0.51 0.63 0.80 0.69 0.99 0.90 0.85 0.76 0.61 0.52 0.44 0.38 0.33 0.32 0.32 0.31 0.31 0.24 0.24 0.25 0.28 0.42 0.58 0.78 1.03 1.36 1.61 1.87 2.18 2.26 2.24 2.22 2.27 2.36 2.43
0.45 0.41 0.41 0.47 0.41 0.44 0.57 0.37 0.40 0.50 0.53 0.59 0.55 0.77 0.83 0.69 0.75 0.67 0.60 0.52 0.43 0.37 0.34 0.32 0.31 0.31 0.32 0.30 0.31 0.38 0.50 0.63 0.80 1.02 1.34 1.66 1.84 2.01 2.21 2.24 2.15 2.10 2.17 2.17
0.45 0.38 0.38 0.38 0.33 0.34 0.41 0.42 0.44 0.47 0.52 0.62 0.43 0.58 0.75 0.68 0.64 0.63 0.59 0.56 0.45 0.34 0.33 0.36 0.41 0.42 0.40 0.42 0.45 0.53 0.64 0.82 0.95 1.02 1.15 1.32 1.52 1.80 1.93 2.04 2.08 2.11 2.12 1.99
0.44 0.37 0.27 0.24 0.36 0.36 0.38 0.56 0.74 0.75 0.73 0.64 0.33 0.47 0.60 0.51 0.47 0.52 0.52 0.52 0.49 0.45 0.44 0.51 0.61 0.57 0.54 0.56 0.65 0.71 0.79 0.85 0.88 0.86 0.91 1.02 1.19 1.40 1.54 1.62 1.82 1.90 1.95 1.91
0.43 0.38 0.26 0.21 0.27 0.38 0.40 0.49 0.72 0.80 0.70 0.57 0.45 0.58 0.59 0.49 0.43 0.46 0.48 0.46 0.46 0.52 0.57 0.69 0.81 0.83 0.78 0.78 0.78 0.76 0.78 0.74 0.72 0.73 0.79 0.84 0.90 1.04 1.16 1.23 1.38 1.52 1.52 1.50
0.39 0.35 0.20 0.18 0.16 0.25 0.35 0.31 0.31 0.45 0.44 0.52 0.54 0.64 0.63 0.46 0.40 0.44 0.47 0.47 0.47 0.58 0.72 0.87 1.01 1.07 0.99 0.92 0.86 0.83 0.83 0.78 0.69 0.69 0.76 0.81 0.85 0.85 0.88 0.93 0.92 1.00 1.08 1.12
0.31 0.34 0.22 0.15 0.16 0.18 0.23 0.26 0.32 0.53 0.69 0.73 0.62 0.67 0.74 0.61 0.49 0.51 0.56 0.63 0.72 0.86 0.93 1.05 1.13 1.12 1.10 1.13 1.09 0.91 0.84 0.84 0.77 0.84 0.84 0.79 0.77 0.74 0.73 0.77 0.81 0.83 0.92 1.01
0.28 0.35 0.26 0.18 0.19 0.21 0.21 0.26 0.39 0.58 0.64 0.85 0.98 1.02 0.78 0.64 0.63 0.64 0.69 0.88 0.95 1.05 1.13 1.14 1.21 1.16 1.03 1.04 1.02 0.99 0.93 0.87 0.88 0.90 0.90 0.79 0.76 0.77 0.76 0.72 0.75 0.83 0.92 1.01
0.33 0.43 0.36 0.20 0.18 0.21 0.31 0.44 0.59 0.89 0.88 0.81 1.10 1.23 0.85 0.70 0.72 0.75 0.75 0.74 0.75 0.95 1.08 1.11 1.18 1.11 0.96 0.92 0.81 0.84 0.92 0.92 0.98 0.98 0.89 0.80 0.78 0.81 0.86 0.84 0.78 0.81 0.86 0.87
0.42 0.58 0.57 0.41 0.41 0.41 0.45 0.54 0.67 0.84 1.00 1.02 1.12 1.20 0.89 0.67 0.66 0.72 0.80 0.78 0.76 0.81 0.86 0.85 0.88 0.95 0.91 0.87 0.77 0.83 0.89 0.95 0.96 0.98 0.95 0.84 0.72 0.75 0.80 0.81 0.73 0.71 0.76 0.81
0.40 0.55 0.65 0.62 0.56 0.54 0.50 0.45 0.51 0.75 1.04 1.06 1.10 1.04 0.79 0.67 0.64 0.67 0.72 0.77 0.74 0.65 0.63 0.62 0.59 0.66 0.69 0.71 0.75 0.80 0.90 1.03 1.05 1.03 0.95 0.89 0.82 0.83 0.78 0.69 0.66 0.67 0.66 0.64
0.33 0.33 0.31 0.27 0.26 0.30 0.38 0.39 0.48 0.62 0.80 1.03 0.92 0.71 0.59 0.58 0.54 0.56 0.62 0.55 0.51 0.48 0.47 0.47 0.44 0.45 0.48 0.51 0.59 0.66 0.77 0.94 1.05 1.10 1.05 0.94 0.86 0.77 0.69 0.63 0.55 0.56 0.51 0.51
0.37 0.31 0.18 0.14 0.16 0.21 0.32 0.44 0.57 0.63 0.70 0.72 0.63 0.59 0.45 0.40 0.36 0.37 0.44 0.43 0.42 0.38 0.33 0.33 0.35 0.34 0.38 0.43 0.51 0.50 0.60 0.76 0.86 0.91 0.92 0.93 0.87 0.69 0.61 0.54 0.47 0.45 0.45 0.46
0.21 0.24 0.20 0.15 0.13 0.23 0.44 0.55 0.62 0.61 0.56 0.48 0.45 0.41 0.30 0.27 0.21 0.21 0.28 0.31 0.35 0.34 0.29 0.27 0.27 0.30 0.35 0.44 0.48 0.50 0.58 0.69 0.70 0.74 0.75 0.77 0.73 0.58 0.52 0.41 0.37 0.40 0.41 0.44
0.17 0.22 0.30 0.22 0.19 0.41 0.64 0.53 0.47 0.51 0.41 0.26 0.23 0.24 0.23 0.19 0.15 0.12 0.13 0.16 0.17 0.21 0.22 0.27 0.25 0.24 0.27 0.35 0.45 0.56 0.58 0.57 0.56 0.59 0.61 0.58 0.57 0.52 0.45 0.36 0.33 0.35 0.38 0.43
0.23 0.30 0.37 0.33 0.32 0.47 0.58 0.39 0.36 0.42 0.38 0.20 0.15 0.14 0.12 0.12 0.09 0.07 0.07 0.10 0.11 0.11 0.14 0.18 0.18 0.17 0.18 0.20 0.23 0.28 0.30 0.31 0.32 0.41 0.48 0.51 0.50 0.45 0.40 0.35 0.40 0.44 0.44 0.44
0.37 0.39 0.42 0.40 0.46 0.57 0.41 0.17 0.16 0.29 0.43 0.18 0.10 0.09 0.08 0.08 0.09 0.07 0.08 0.10 0.09 0.08 0.07 0.10 0.13 0.12 0.12 0.12 0.13 0.13 0.15 0.19 0.22 0.28 0.34 0.40 0.44 0.45 0.47 0.55 0.62 0.61 0.56 0.50
0.26 0.31 0.38 0.46 0.64 0.64 0.36 0.15 0.17 0.31 0.44 0.23 0.10 0.06 0.06 0.07 0.07 0.07 0.09 0.09 0.08 0.07 0.06 0.07 0.09 0.10 0.10 0.10 0.09 0.10 0.11 0.11 0.11 0.14 0.19 0.29 0.43 0.49 0.55 0.65 0.66 0.64 0.57 0.47
0.25 0.35 0.44 0.57 0.74 0.81 0.41 0.21 0.25 0.23 0.16 0.12 0.07 0.05 0.05 0.05 0.06 0.07 0.07 0.07 0.06 0.07 0.06 0.06 0.07 0.08 0.10 0.11 0.09 0.09 0.14 0.12 0.10 0.12 0.17 0.24 0.33 0.43 0.57 0.65 0.62 0.60 0.58 0.51
0.23 0.39 0.53 0.57 0.62 0.52 0.32 0.21 0.15 0.10 0.10 0.05 0.04 0.03 0.03 0.03 0.05 0.06 0.08 0.07 0.06 0.06 0.06 0.07 0.07 0.08 0.08 0.09 0.09 0.09 0.10 0.11 0.10 0.11 0.12 0.14 0.21 0.33 0.48 0.54 0.55 0.56 0.56 0.54
0.12 0.15 0.23 0.24 0.18 0.17 0.14 0.12 0.07 0.04 0.05 0.02 0.01 0.01 0.02 0.03 0.03 0.05 0.06 0.06 0.06 0.06 0.05 0.05 0.06 0.06 0.07 0.07 0.08 0.10 0.11 0.10 0.09 0.10 0.11 0.10 0.10 0.12 0.19 0.26 0.34 0.40 0.44 0.44
0.12 0.13 0.20 0.23 0.12 0.07 0.06 0.06 0.04 0.03 0.03 0.01 0.01 0.01 0.01 0.02 0.02 0.03 0.05 0.05 0.06 0.06 0.06 0.05 0.06 0.07 0.06 0.07 0.07 0.09 0.10 0.10 0.10 0.10 0.09 0.09 0.11 0.13 0.12 0.14 0.18 0.22 0.25 0.32
0.09 0.14 0.18 0.21 0.14 0.08 0.05 0.04 0.03 0.03 0.02 0.01 0.01 0.01 0.00 0.01 0.02 0.02 0.03 0.04 0.04 0.05 0.05 0.06 0.07 0.08 0.07 0.07 0.08 0.08 0.08 0.09 0.10 0.11 0.10 0.08 0.08 0.10 0.11 0.12 0.13 0.15 0.15 0.18